Location: Bellflower
(33.8817°N, 118.1170°W)
Time: 12:27:55
(UTC+00:00)

Cosmos 1937 Rocket - Pass Details

Date: 23 November 2020
Orbit: 745 x 781 km, 74.0° (Epoch: 21 January)

Event Time Altitude Azimuth Distance (km) Brightness Sun altitude
Rises 13:46:39 0° 185° (S) 3,170 6.9 -9.8°
Reaches altitude 10° 13:49:02 10° 181° (S) 2,251 6.2 -9.3°
Maximum altitude 13:54:00 56° 103° (ESE) 884 4.3 -8.3°
Drops below altitude 10° 13:59:02 10° 26° (NNE) 2,274 6.0 -7.3°
Sets 14:01:26 0° 22° (NNE) 3,206 6.8 -6.9°
